WX0AOK Weather Reports


Display with metric or nautical units.
time (UTC)temp
F
wind
direction
speed
MPH
gust
MPH
rain 1hr
in
rain 24hr
in
rain mn
in
humidity
%
barometer
mb
20260504110511 56 337 2.0 6.0 0.00 0.00 0.00 49 996.1
20260504100505 55 249 0.0 6.0 0.00 0.00 0.00 49 996.5
20260504082003 54 283 0.0 3.0 0.00 0.00 0.00 49 998.3
20260504081513 54 217 0.0 3.0 0.00 0.00 0.00 50 998.3
20260504081009 54 261 0.0 3.0 0.00 0.00 0.00 49 998.5
20260504080507 54 345 0.0 3.0 0.00 0.00 0.00 50 998.6
20260504050513 52 260 0.0 0.0 0.00 0.00 0.00 62 1001.6
20260504045510 52 260 0.0 0.0 0.00 0.00 0.00 62 1001.8
20260504045009 52 260 0.0 0.0 0.00 0.00 0.00 61 1001.9
20260504044528 52 260 0.0 0.0 0.00 0.00 0.00 58 1002.1
20260504044010 52 260 0.0 0.0 0.00 0.00 0.00 54 1002.2
20260504043510 52 260 0.0 0.0 0.00 0.00 0.00 54 1002.4
20260504043018 52 260 0.0 0.0 0.00 0.00 0.00 55 1002.5
20260504042508 52 260 0.0 0.0 0.00 0.00 0.00 55 1002.5
20260504042007 52 260 0.0 0.0 0.00 0.00 0.00 55 1002.6
20260504041524 53 260 0.0 0.0 0.00 0.00 0.00 56 1002.6
20260504041010 53 260 0.0 0.0 0.00 0.00 0.00 55 1002.7
20260504040510 53 260 0.0 0.0 0.00 0.00 0.00 54 1002.8
20260504040020 53 260 0.0 0.0 0.00 0.00 0.00 53 1002.9
20260504035506 53 260 0.0 0.0 0.00 0.00 0.00 52 1002.9
20260504035008 53 260 0.0 0.0 0.00 0.00 0.00 52 1003.1
20260504034513 53 260 0.0 0.0 0.00 0.00 0.00 50 1003.1
20260504034005 54 260 0.0 0.0 0.00 0.00 0.00 49 1003.1
20260504033505 54 260 0.0 0.0 0.00 0.00 0.00 48 1003.2
20260504033033 54 260 0.0 0.0 0.00 0.00 0.00 50 1003.3
20260504032505 54 260 0.0 0.0 0.00 0.00 0.00 50 1003.4
20260504032008 55 260 0.0 0.0 0.00 0.00 0.00 53 1003.4
20260504031524 55 260 0.0 0.0 0.00 0.00 0.00 52 1003.4
20260504031008 55 260 0.0 0.0 0.00 0.00 0.00 56 1003.5
20260504030502 55 260 0.0 0.0 0.00 0.00 0.00 52 1003.5
20260504030009 56 260 0.0 0.0 0.00 0.00 0.00 52 1003.6
20260504025502 56 260 0.0 0.0 0.00 0.00 0.00 53 1003.7
20260504025004 57 260 0.0 0.0 0.00 0.00 0.00 49 1003.6
20260504024510 57 260 0.0 0.0 0.00 0.00 0.00 45 1003.6
20260504024008 57 260 0.0 0.0 0.00 0.00 0.00 51 1003.6
20260504023505 58 260 0.0 0.0 0.00 0.00 0.00 49 1003.6
20260504023014 58 260 0.0 0.0 0.00 0.00 0.00 50 1003.7
20260504022509 59 260 0.0 0.0 0.00 0.00 0.00 46 1003.7
20260504022008 59 260 0.0 0.0 0.00 0.00 0.00 45 1003.7
20260504021518 60 260 0.0 0.0 0.00 0.00 0.00 47 1003.7
20260504021006 61 260 0.0 0.0 0.00 0.00 0.00 50 1003.7
20260504020512 61 260 0.0 0.0 0.00 0.00 0.00 45 1003.7
20260504020025 62 260 0.0 0.0 0.00 0.00 0.00 43 1003.7
20260504015509 62 260 0.0 0.0 0.00 0.00 0.00 40 1003.7
20260504015001 63 260 0.0 0.0 0.00 0.00 0.00 39 1003.8
20260504014520 63 260 0.0 0.0 0.00 0.00 0.00 42 1003.8
20260504014002 64 260 0.0 0.0 0.00 0.00 0.00 33 1003.9
20260504013509 64 260 0.0 1.0 0.00 0.00 0.00 32 1003.9
20260504013012 64 260 0.0 1.0 0.00 0.00 0.00 30 1004.0
20260504012510 65 260 0.0 2.0 0.00 0.00 0.00 30 1004.0
20260504012008 65 260 0.0 3.0 0.00 0.00 0.00 30 1004.1
20260504011518 66 269 1.0 3.0 0.00 0.00 0.00 30 1004.1
20260504011007 66 244 1.0 3.0 0.00 0.00 0.00 31 1004.0
20260504010507 66 257 1.0 4.0 0.00 0.00 0.00 29 1004.0
20260504010020 67 292 2.0 5.0 0.00 0.00 0.00 31 1004.1
20260504005510 67 256 1.0 5.0 0.00 0.00 0.00 30 1004.1
20260504005009 67 285 2.0 6.0 0.00 0.00 0.00 31 1004.2
20260504004540 67 277 3.0 6.0 0.00 0.00 0.00 28 1004.2
20260504004009 68 308 2.0 6.0 0.00 0.00 0.00 31 1004.2
20260504003505 68 294 3.0 8.0 0.00 0.00 0.00 29 1004.2
20260504003010 68 297 4.0 11.0 0.00 0.00 0.00 30 1004.2
20260504002503 68 293 6.0 11.0 0.00 0.00 0.00 32 1004.2
20260504002005 69 311 4.0 7.0 0.00 0.00 0.00 32 1004.3
20260504001517 69 293 3.0 6.0 0.00 0.00 0.00 31 1004.4
20260504001011 68 288 3.0 7.0 0.00 0.00 0.00 32 1004.4
20260504000506 68 293 3.0 8.0 0.00 0.00 0.00 32 1004.4
20260504000018 68 290 4.0 9.0 0.00 0.00 0.00 32 1004.4
20260503235510 68 322 4.0 9.0 0.00 0.00 0.00 32 1004.3
20260503235006 69 307 5.0 10.0 0.00 0.00 0.00 29 1004.2
20260503234524 70 291 5.0 10.0 0.00 0.00 0.00 27 1004.3
20260503234010 70 266 3.0 12.0 0.00 0.00 0.00 28 1004.3
20260503233510 69 296 4.0 12.0 0.00 0.00 0.00 29 1004.4
20260503233028 69 287 6.0 11.0 0.00 0.00 0.00 30 1004.4
20260503232509 69 318 3.0 7.0 0.00 0.00 0.00 30 1004.5
20260503232002 69 323 4.0 7.0 0.00 0.00 0.00 33 1004.6
20260503231512 69 304 3.0 12.0 0.00 0.00 0.00 29 1004.7
20260503231007 69 318 6.0 12.0 0.00 0.00 0.00 31 1004.7
20260503230504 69 323 4.0 9.0 0.00 0.00 0.00 30 1004.7
20260503230015 69 295 5.0 9.0 0.00 0.00 0.00 33 1004.7
20260503225506 68 312 2.0 8.0 0.00 0.00 0.00 33 1004.7
20260503225014 68 278 4.0 9.0 0.00 0.00 0.00 30 1004.8
20260503224524 68 293 5.0 9.0 0.00 0.00 0.00 36 1004.8
20260503224007 68 325 4.0 11.0 0.00 0.00 0.00 31 1004.8
20260503223507 68 350 5.0 11.0 0.00 0.00 0.00 31 1004.9
20260503223026 68 310 4.0 10.0 0.00 0.00 0.00 31 1005.0
20260503222509 68 354 6.0 10.0 0.00 0.00 0.00 30 1005.0
20260503222010 68 316 6.0 15.0 0.00 0.00 0.00 31 1005.0
20260503221527 68 292 7.0 15.0 0.00 0.00 0.00 30 1004.9
20260503221010 68 287 8.0 15.0 0.00 0.00 0.00 29 1005.0
20260503220512 68 243 5.0 15.0 0.00 0.00 0.00 32 1005.0
20260503220012 68 297 7.0 12.0 0.00 0.00 0.00 30 1005.0
20260503215504 68 271 7.0 12.0 0.00 0.00 0.00 28 1005.0
20260503215007 68 316 6.0 14.0 0.00 0.00 0.00 34 1005.0
20260503214505 68 278 7.0 14.0 0.00 0.00 0.00 28 1004.9
20260503214002 67 327 8.0 11.0 0.00 0.00 0.00 33 1004.9
20260503213506 67 347 6.0 11.0 0.00 0.00 0.00 35 1005.1
20260503213004 68 354 5.0 11.0 0.00 0.00 0.00 33 1005.2
20260503212504 68 309 5.0 10.0 0.00 0.00 0.00 35 1005.1
20260503212005 67 310 6.0 12.0 0.00 0.00 0.00 32 1005.1
20260503211508 67 347 7.0 12.0 0.00 0.00 0.00 35 1005.2
20260503211007 67 283 5.0 11.0 0.00 0.00 0.00 38 1005.2
20260503210503 68 320 7.0 11.0 0.00 0.00 0.00 36 1005.2
20260503210013 67 304 4.0 9.0 0.00 0.00 0.00 38 1005.2
20260503205505 67 317 4.0 9.0 0.00 0.00 0.00 36 1005.3
20260503205007 67 342 5.0 11.0 0.00 0.00 0.00 35 1005.4
20260503204520 68 338 5.0 11.0 0.00 0.00 0.00 32 1005.5
20260503204014 68 294 4.0 11.0 0.00 0.00 0.00 34 1005.5
20260503203506 67 313 4.0 12.0 0.00 0.00 0.00 32 1005.5
20260503203008 67 316 6.0 12.0 0.00 0.00 0.00 32 1005.7
20260503202508 67 313 7.0 11.0 0.00 0.00 0.00 30 1005.8
20260503202003 67 290 6.0 12.0 0.00 0.00 0.00 35 1005.8
20260503201520 67 295 7.0 12.0 0.00 0.00 0.00 32 1005.9
20260503201002 67 297 3.0 10.0 0.00 0.00 0.00 34 1005.9
20260503200504 66 331 4.0 10.0 0.00 0.00 0.00 34 1006.0
20260503200011 66 325 7.0 12.0 0.00 0.00 0.00 33 1006.2
20260503195507 66 2 7.0 12.0 0.00 0.00 0.00 32 1006.2
20260503195006 67 314 6.0 11.0 0.00 0.00 0.00 32 1006.3
20260503194517 67 28 6.0 14.0 0.00 0.00 0.00 32 1006.3
20260503194006 66 288 9.0 14.0 0.00 0.00 0.00 32 1006.3
20260503193510 66 331 4.0 12.0 0.00 0.00 0.00 37 1006.3
20260503193035 66 324 6.0 12.0 0.00 0.00 0.00 37 1006.3
20260503192506 66 326 6.0 10.0 0.00 0.00 0.00 31 1006.2
20260503192007 66 315 4.0 12.0 0.00 0.00 0.00 33 1006.4
20260503191518 66 344 8.0 12.0 0.00 0.00 0.00 34 1006.4
20260503191003 66 8 5.0 13.0 0.00 0.00 0.00 36 1006.3
20260503190506 66 330 7.0 13.0 0.00 0.00 0.00 40 1006.4
20260503190009 66 314 6.0 14.0 0.00 0.00 0.00 42 1006.4
20260503185503 66 324 6.0 14.0 0.00 0.00 0.00 39 1006.4
20260503185003 65 330 4.0 11.0 0.00 0.00 0.00 36 1006.4
20260503184521 65 1 5.0 12.0 0.00 0.00 0.00 40 1006.5
20260503184006 65 307 8.0 12.0 0.00 0.00 0.00 40 1006.5
20260503183507 65 324 5.0 10.0 0.00 0.00 0.00 40 1006.4
20260503183018 65 321 6.0 10.0 0.00 0.00 0.00 39 1006.5
20260503182507 65 4 5.0 10.0 0.00 0.00 0.00 38 1006.6
20260503182007 65 61 3.0 12.0 0.00 0.00 0.00 39 1006.6
20260503181524 65 356 6.0 14.0 0.00 0.00 0.00 38 1006.6
20260503181008 65 288 6.0 14.0 0.00 0.00 0.00 41 1006.8
20260503180506 64 301 7.0 12.0 0.00 0.00 0.00 39 1006.7
20260503180022 64 34 5.0 12.0 0.00 0.00 0.00 41 1006.7
20260503175502 64 267 5.0 14.0 0.00 0.00 0.00 43 1006.7
20260503175006 64 322 9.0 14.0 0.00 0.00 0.00 42 1006.7
20260503174510 64 302 7.0 14.0 0.00 0.00 0.00 45 1006.7
20260503174003 64 262 8.0 14.0 0.00 0.00 0.00 42 1006.8
20260503173506 64 324 7.0 12.0 0.00 0.00 0.00 43 1006.7
20260503173022 64 332 6.0 17.0 0.00 0.00 0.00 39 1006.7
20260503172508 64 318 7.0 17.0 0.00 0.00 0.00 44 1006.6
20260503172005 64 349 4.0 12.0 0.00 0.00 0.00 46 1006.7
20260503171524 64 358 7.0 12.0 0.00 0.00 0.00 45 1006.8
20260503171008 64 330 6.0 12.0 0.00 0.00 0.00 47 1006.8
20260503170507 64 305 3.0 10.0 0.00 0.00 0.00 45 1006.7
20260503151006 60 327 5.0 13.0 0.00 0.00 0.00 48 1006.5
20260503150506 60 311 8.0 13.0 0.00 0.00 0.00 49 1006.4
20260503131012 54 358 3.0 7.0 0.00 0.00 0.00 58 1005.6
20260503130509 54 325 4.0 7.0 0.00 0.00 0.00 59 1005.5